Flag for Australia Weather past 2 weeks in Hobart, Tasmania, Australia

Now
48 °F

Partly sunny.


Feels Like: 44 °F
Forecast: 42 / 54 °F
Wind: 10 mph from Southwest

Location: Hobart Airport

Current Time: Apr 19, 2015 at 6:19:09 AM

Latest Report: Apr 19, 2015 at 6:00 AM


Visibility: N/A

Pressure: 30.09 "Hg

Humidity: 58%

Dew point: 34 °F

Location of HobartLocation

Historic Weather in Hobart — Graph

°F

Hobart temperature yesterday

Maximum temperature yesterday: 70 °F (at 12:00 PM)
Minimum temperature yesterday: 50 °F (at 11:00 PM)
Average temperature yesterday: 58 °F

Past Weeks' High & Low Weather Summary

 TemperatureHumidityPressure
High77 °F (Apr 15, 2:00 PM)100% (Apr 5, 3:00 AM)30.36 "Hg (Apr 5, 3:00 AM)
Low39 °F (Apr 14, 1:00 AM)23% (Apr 17, 3:30 PM)29.56 "Hg (Apr 18, 1:00 PM)
Average55 °F65%30.07 "Hg
* Reported Apr 4 6:00 AM — Apr 19 5:00 AM, Hobart, Weather by CustomWeather, © 2015

Note: Actual official high and low records may vary slightly from our data, if they occured in-between our weather recording intervals... More about our weather records

Advertising

Hobart weather history for previous 24 hours

 ConditionsComfort  
Time TempWeatherWind HumidityBarometerVisibility
5:00 AM
Sun, Apr 19
46 °FScattered showers. Passing clouds.6 mph76%30.04 "HgN/A
4:30 AM46 °FScattered showers. Passing clouds.15 mph82%30.01 "HgN/A
4:00 AM46 °FSprinkles. Passing clouds.18 mph76%30.01 "HgN/A
3:30 AM48 °FScattered showers. Passing clouds.13 mph71%29.98 "HgN/A
3:00 AM48 °FSprinkles. Passing clouds.10 mph76%29.95 "HgN/A
2:30 AM50 °FSprinkles. Passing clouds.14 mph71%29.92 "HgN/A
2:00 AM48 °FPassing clouds.12 mph66%29.92 "HgN/A
1:00 AM50 °FPassing clouds.6 mph62%29.89 "HgN/A
12:00 AM50 °FPassing clouds.9 mph62%29.86 "HgN/A
11:30 PM
Sat, Apr 18
50 °FPassing clouds.8 mph67%29.83 "HgN/A
11:00 PM50 °FPassing clouds.5 mph67%29.83 "HgN/A
10:30 PM52 °FPassing clouds.7 mph58%29.83 "HgN/A
10:00 PM52 °FPassing clouds.3 mph62%29.83 "HgN/A
9:30 PM54 °FPassing clouds.8 mph54%29.80 "HgN/A
9:00 PM54 °FPartly cloudy.10 mph54%29.77 "HgN/A
8:30 PM54 °FPassing clouds.10 mph54%29.77 "HgN/A
8:00 PM54 °FPassing clouds.15 mph54%29.74 "HgN/A
7:30 PM54 °FPassing clouds.10 mph54%29.74 "HgN/A
7:00 PM55 °FPassing clouds.12 mph51%29.71 "HgN/A
6:30 PM55 °FScattered showers. Partly cloudy.20 mph47%29.71 "HgN/A
6:00 PM57 °FPartly cloudy.12 mph48%29.71 "HgN/A
5:30 PM54 °FScattered showers. Passing clouds.8 mph88%29.68 "HgN/A
5:00 PM55 °FScattered showers. Partly cloudy.6 mph72%29.65 "HgN/A
4:30 PM55 °FScattered showers. Partly sunny.15 mph72%29.65 "HgN/A
4:00 PM55 °FSprinkles. Partly sunny.20 mph67%29.62 "HgN/A
3:00 PM68 °FPartly sunny.21 mph40%29.56 "HgN/A
2:30 PM70 °FSunny.24 mph35%29.56 "Hg10 mi
2:00 PM70 °FSunny.25 mph35%29.56 "Hg10 mi
1:50 PM70 °FSunny.22 mph33%29.56 "Hg10 mi
1:00 PM70 °FSunny.22 mph31%29.56 "Hg10 mi
12:30 PM70 °FSunny.22 mph29%29.59 "Hg10 mi
12:00 PM70 °FPassing clouds.20 mph25%29.59 "HgN/A
11:00 AM66 °FPassing clouds.15 mph35%29.65 "HgN/A
10:30 AM64 °FPassing clouds.17 mph40%29.65 "HgN/A
10:00 AM63 °FPassing clouds.17 mph39%29.65 "HgN/A
9:30 AM63 °FPassing clouds.17 mph39%29.68 "HgN/A
9:00 AM61 °FPassing clouds.16 mph45%29.68 "HgN/A
8:30 AM59 °FPassing clouds.12 mph48%29.71 "HgN/A
8:00 AM57 °FPassing clouds.6 mph51%29.71 "HgN/A
7:30 AM55 °FSunny.7 mph55%29.71 "Hg10 mi
7:00 AM55 °FSunny.9 mph47%29.71 "Hg10 mi
6:00 AM54 °FSunny.12 mph67%29.68 "Hg10 mi
Weather by CustomWeather, © 2015

See weather overviewHow to use our weather pages